User: anonymous   Login
Location: Passau
(48.5830°N, 13.4830°E)
Time: 13:59:51
(UTC+02:00)
Language:

ISS - Orbit

View from above orbital plane
View from above orbital plane
View from above satellite
View from above satellite

Ground track
Ground track

The orbit data is extracted from the following two-line orbital elements,

1 25544U 98067A   21261.35064343  .00001779  00000-0  41233-4 0  9991
2 25544  51.6436 242.0716 0003232  28.8192 114.2371 15.48405694303033
Epoch (UTC): 18 September 2021 08:24:55
Eccentricity: 0.0003232
inclination: 51.6436°
perigee height: 419 km
apogee height: 423 km
right ascension of ascending node: 242.0716°
argument of perigee: 28.8192°
revolutions per day: 15.48405694
mean anomaly at epoch: 114.2371°
orbit number at epoch: 30303

The dashed part of the orbit path shows where the satellite is in the earth's shadow,  

DLR